Glendale Luke AFB, AZ

10:03 AM MST on December 17, 2017 (GMT -0700)
Luke Air Force Base

Weather History for KLUF - May, 2013

Change the Weather History Date:

Tuesday, May 21, 2013

  Actual Average Record
Temperature  
Mean Temperature 81 °F -  
Max Temperature 97 °F 97 °F 108 °F (1958)
Min Temperature 65 °F 58 °F 47 °F (1921)
Cooling Degree Days 16    
Growing Degree Days 31 (Base 50)    
Moisture  
Dew Point 26 °F    
Average Humidity 14    
Maximum Humidity 30    
Minimum Humidity 6    
Precipitation  
Precipitation 0.00 in - - ()
Sea Level Pressure  
Sea Level Pressure 29.76 in    
Wind  
Wind Speed 7 mph (SW)    
Max Wind Speed 14 mph    
Max Gust Speed -    
Visibility 10 miles    
Events      
Averages and records for this station are not official NWS values.
T = Trace of Precipitation, MM = Missing Value Source: NWS Daily Summary

Daily Weather History Graph

Daily Weather History Graph

Search for Another Location

Airport or City:

Trip Planner

Search our weather history database for the weather conditions in past years. The results will help you decide how hot, cold, wet, or windy it might be!

Date:

Astronomy

May. 21, 2013 Rise Set
Actual Time 5:25 AM MST 7:27 PM MST
Civil Twilight 4:57 AM MST 7:55 PM MST
Nautical Twilight 4:23 AM MST 8:29 PM MST
Astronomical Twilight 3:47 AM MST 9:05 PM MST
Moon 3:54 PM MST (5/21) 2:44 AM MST (5/21)
Length of Visible Light 14h 58m
Length of Day
14h 02m
Waxing Gibbous, 85% of the Moon is Illuminated
May 21
Waxing Gibbous
May 24
Full
May 31
Last Quarter
Jun 8
New
Jun 16
First Quarter

Hourly Weather History & Observations

Time (MST) Temp. Dew Point Humidity Pressure Visibility Wind Dir Wind Speed Gust Speed Precip Events Conditions
12:58 AM 75.2 °F 29.5 °F 19% 29.78 in 10.0 mi NW 8.1 mph - N/A   Clear
1:58 AM 72.7 °F 29.7 °F 20% 29.78 in 10.0 mi NNW 9.2 mph - N/A   Clear
2:58 AM 72.7 °F 28.6 °F 20% 29.79 in 10.0 mi NNW 5.8 mph - N/A   Clear
3:58 AM 69.6 °F 32.0 °F 25% 29.80 in 10.0 mi NE 3.5 mph - N/A   Clear
4:58 AM 67.1 °F 30.6 °F 26% 29.81 in 10.0 mi North 3.5 mph - N/A   Clear
5:58 AM 65.7 °F 33.1 °F 30% 29.83 in 10.0 mi NNW 8.1 mph - N/A   Clear
6:58 AM 74.1 °F 34.5 °F 24% 29.85 in 10.0 mi North 2.3 mph - N/A   Clear
7:58 AM 78.4 °F 29.1 °F 16% 29.85 in 10.0 mi ESE 2.3 mph - N/A   Clear
8:58 AM 81.7 °F 29.8 °F 15% 29.85 in 10.0 mi SE 4.6 mph - N/A   Clear
9:58 AM 86.7 °F 27.5 °F 12% 29.83 in 10.0 mi ENE 6.9 mph - N/A   Clear
10:58 AM 89.8 °F 24.4 °F 9% 29.82 in 10.0 mi ESE 9.2 mph - N/A   Clear
11:58 AM 91.9 °F 26.1 °F 9% 29.81 in 10.0 mi SSE 6.9 mph - N/A   Clear
12:58 PM 93.9 °F 24.8 °F 8% 29.79 in 10.0 mi SW 6.9 mph - N/A   Clear
1:58 PM 95.2 °F 22.5 °F 7% 29.77 in 10.0 mi Variable 4.6 mph - N/A   Scattered Clouds
2:58 PM 95.7 °F 22.8 °F 7% 29.74 in 10.0 mi West 6.9 mph - N/A   Scattered Clouds
3:58 PM 96.3 °F 23.4 °F 7% 29.71 in 10.0 mi WSW 9.2 mph - N/A   Scattered Clouds
4:58 PM 97.0 °F 23.9 °F 7% 29.68 in 10.0 mi SW 13.8 mph - N/A   Clear
5:58 PM 96.8 °F 20.1 °F 6% 29.68 in 10.0 mi SSW 10.4 mph - N/A   Scattered Clouds
6:58 PM 94.6 °F 18.3 °F 6% 29.67 in 10.0 mi SSW 10.4 mph - N/A   Clear
7:58 PM 91.6 °F 22.8 °F 8% 29.66 in 10.0 mi SSW 10.4 mph - N/A   Clear
8:58 PM 88.3 °F 24.8 °F 10% 29.67 in 10.0 mi SSW 6.9 mph - N/A   Clear
9:58 PM 84.2 °F 25.2 °F 12% 29.68 in 10.0 mi SW 4.6 mph - N/A   Clear
10:58 PM 81.3 °F 24.6 °F 12% 29.67 in 10.0 mi SW 5.8 mph - 0.00 in   Clear
11:58 PM 80.2 °F 24.8 °F 13% 29.67 in 10.0 mi SW 3.5 mph - N/A   Clear